| time (UTC) | temp C | wind direction | speed KPH | gust KPH | rain 1hr cm | rain 24hr cm | rain mn cm | humidity % | barometer mb |
| 20260831033526 | 27 | 144 | 0.0 | 1.6 | 0.00 | 0.00 | 0.00 | 39 | 1014.2 |
| 20260831032521 | 28 | 144 | 1.6 | 3.2 | 0.00 | 0.00 | 0.00 | 38 | 1014.2 |
| 20260831031517 | 28 | 144 | 1.6 | 4.8 | 0.00 | 0.00 | 0.00 | 37 | 1014.1 |
| 20260831030527 | 28 | 143 | 1.6 | 4.8 | 0.00 | 0.00 | 0.00 | 37 | 1014.1 |
| 20260831025543 | 28 | 139 | 1.6 | 4.8 | 0.00 | 0.00 | 0.00 | 36 | 1014.1 |
| 20260831024518 | 29 | 126 | 1.6 | 3.2 | 0.00 | 0.00 | 0.00 | 36 | 1013.8 |
| 20260831023529 | 29 | 119 | 1.6 | 4.8 | 0.00 | 0.00 | 0.00 | 35 | 1013.7 |
| 20260831022525 | 30 | 110 | 3.2 | 4.8 | 0.00 | 0.00 | 0.00 | 35 | 1013.6 |
| 20260831021521 | 30 | 120 | 3.2 | 9.7 | 0.00 | 0.00 | 0.00 | 34 | 1013.5 |
| 20260831020516 | 30 | 132 | 3.2 | 11.3 | 0.00 | 0.00 | 0.00 | 34 | 1013.3 |
| 20260831015547 | 30 | 124 | 1.6 | 6.4 | 0.00 | 0.00 | 0.00 | 33 | 1013.1 |
| 20260831014523 | 30 | 156 | 3.2 | 9.7 | 0.00 | 0.00 | 0.00 | 33 | 1013.0 |
| 20260831013519 | 30 | 153 | 3.2 | 9.7 | 0.00 | 0.00 | 0.00 | 33 | 1012.8 |
| 20260831012529 | 31 | 141 | 3.2 | 11.3 | 0.00 | 0.00 | 0.00 | 32 | 1012.8 |
| 20260831011525 | 31 | 156 | 3.2 | 6.4 | 0.00 | 0.00 | 0.00 | 32 | 1012.7 |
| 20260831010520 | 31 | 150 | 3.2 | 6.4 | 0.00 | 0.00 | 0.00 | 31 | 1012.7 |
| 20260831005517 | 31 | 151 | 3.2 | 9.7 | 0.00 | 0.00 | 0.00 | 30 | 1012.6 |
| 20260831004030 | 32 | 157 | 3.2 | 14.5 | 0.00 | 0.00 | 0.00 | 29 | 1012.5 |
| 20260831003025 | 32 | 175 | 3.2 | 9.7 | 0.00 | 0.00 | 0.00 | 28 | 1012.5 |
| 20260831002021 | 33 | 156 | 3.2 | 9.7 | 0.00 | 0.00 | 0.00 | 27 | 1012.5 |
| 20260831001037 | 33 | 172 | 6.4 | 12.9 | 0.00 | 0.00 | 0.00 | 26 | 1012.7 |
| 20260831000027 | 33 | 144 | 3.2 | 12.9 | 0.00 | 0.00 | 0.00 | 25 | 1012.8 |
| 20260830235023 | 34 | 153 | 6.4 | 17.7 | 0.00 | 0.00 | 0.00 | 25 | 1012.7 |
| 20260830234018 | 34 | 152 | 4.8 | 12.9 | 0.00 | 0.00 | 0.00 | 25 | 1012.7 |
| 20260830233029 | 35 | 110 | 9.7 | 14.5 | 0.00 | 0.00 | 0.00 | 24 | 1012.8 |
| 20260830232030 | 35 | 133 | 6.4 | 16.1 | 0.00 | 0.00 | 0.00 | 23 | 1012.7 |
| 20260830231024 | 36 | 108 | 8.0 | 16.1 | 0.00 | 0.00 | 0.00 | 22 | 1012.8 |
| 20260830230019 | 36 | 153 | 4.8 | 17.7 | 0.00 | 0.00 | 0.00 | 23 | 1012.8 |
| 20260830225110 | 36 | 164 | 6.4 | 16.1 | 0.00 | 0.00 | 0.00 | 22 | 1012.8 |
| 20260830224024 | 36 | 130 | 8.0 | 14.5 | 0.00 | 0.00 | 0.00 | 22 | 1012.9 |
| 20260830223020 | 36 | 137 | 4.8 | 11.3 | 0.00 | 0.00 | 0.00 | 22 | 1012.9 |
| 20260830222029 | 36 | 156 | 8.0 | 16.1 | 0.00 | 0.00 | 0.00 | 22 | 1013.0 |
| 20260830221024 | 36 | 165 | 6.4 | 14.5 | 0.00 | 0.00 | 0.00 | 21 | 1013.1 |
| 20260830220059 | 36 | 145 | 4.8 | 16.1 | 0.00 | 0.00 | 0.00 | 21 | 1013.0 |
| 20260830215029 | 36 | 163 | 6.4 | 12.9 | 0.00 | 0.00 | 0.00 | 22 | 1012.9 |
| 20260830214044 | 36 | 157 | 8.0 | 16.1 | 0.00 | 0.00 | 0.00 | 21 | 1013.1 |
| 20260830213018 | 36 | 147 | 8.0 | 22.5 | 0.00 | 0.00 | 0.00 | 21 | 1013.2 |
| 20260830212028 | 36 | 153 | 6.4 | 20.9 | 0.00 | 0.00 | 0.00 | 21 | 1013.3 |
| 20260830211023 | 37 | 156 | 8.0 | 16.1 | 0.00 | 0.00 | 0.00 | 21 | 1013.5 |
| 20260830210019 | 37 | 154 | 6.4 | 24.1 | 0.00 | 0.00 | 0.00 | 21 | 1013.7 |
| 20260830205028 | 37 | 125 | 6.4 | 14.5 | 0.00 | 0.00 | 0.00 | 21 | 1013.8 |
| 20260830204024 | 37 | 152 | 6.4 | 17.7 | 0.00 | 0.00 | 0.00 | 21 | 1013.8 |
| 20260830203019 | 37 | 144 | 6.4 | 20.9 | 0.00 | 0.00 | 0.00 | 21 | 1014.0 |
| 20260830202029 | 36 | 125 | 6.4 | 16.1 | 0.00 | 0.00 | 0.00 | 22 | 1014.1 |
| 20260830201024 | 37 | 144 | 6.4 | 17.7 | 0.00 | 0.00 | 0.00 | 22 | 1014.3 |
| 20260830200018 | 37 | 145 | 8.0 | 25.7 | 0.00 | 0.00 | 0.00 | 22 | 1014.4 |
| 20260830195029 | 37 | 181 | 6.4 | 16.1 | 0.00 | 0.00 | 0.00 | 22 | 1014.6 |
| 20260830194023 | 37 | 124 | 6.4 | 12.9 | 0.00 | 0.00 | 0.00 | 22 | 1014.5 |
| 20260830193018 | 37 | 122 | 9.7 | 17.7 | 0.00 | 0.00 | 0.00 | 22 | 1014.8 |
| 20260830192028 | 37 | 153 | 6.4 | 16.1 | 0.00 | 0.00 | 0.00 | 23 | 1014.9 |
| 20260830191023 | 37 | 150 | 6.4 | 20.9 | 0.00 | 0.00 | 0.00 | 23 | 1015.1 |
| 20260830190019 | 36 | 149 | 8.0 | 20.9 | 0.00 | 0.00 | 0.00 | 24 | 1015.2 |
| 20260830185028 | 37 | 163 | 8.0 | 14.5 | 0.00 | 0.00 | 0.00 | 24 | 1015.3 |
| 20260830184027 | 36 | 163 | 6.4 | 14.5 | 0.00 | 0.00 | 0.00 | 25 | 1015.4 |
| 20260830183022 | 36 | 163 | 6.4 | 17.7 | 0.00 | 0.00 | 0.00 | 24 | 1015.7 |
| 20260830182017 | 36 | 152 | 6.4 | 22.5 | 0.00 | 0.00 | 0.00 | 25 | 1015.8 |
| 20260830181047 | 36 | 132 | 4.8 | 12.9 | 0.00 | 0.00 | 0.00 | 26 | 1015.9 |
| 20260830180021 | 36 | 148 | 6.4 | 16.1 | 0.00 | 0.00 | 0.00 | 25 | 1016.1 |
| 20260830175017 | 36 | 139 | 9.7 | 22.5 | 0.00 | 0.00 | 0.00 | 25 | 1016.2 |
| 20260830174027 | 35 | 162 | 8.0 | 20.9 | 0.00 | 0.00 | 0.00 | 26 | 1016.5 |
| 20260830173022 | 35 | 165 | 9.7 | 25.7 | 0.00 | 0.00 | 0.00 | 26 | 1016.6 |
| 20260830172057 | 35 | 153 | 4.8 | 12.9 | 0.00 | 0.00 | 0.00 | 27 | 1016.7 |
| 20260830171027 | 35 | 168 | 4.8 | 17.7 | 0.00 | 0.00 | 0.00 | 28 | 1016.8 |
| 20260830170022 | 34 | 166 | 4.8 | 14.5 | 0.00 | 0.00 | 0.00 | 29 | 1017.0 |
| 20260830165017 | 34 | 164 | 4.8 | 12.9 | 0.00 | 0.00 | 0.00 | 29 | 1017.0 |
| 20260830164027 | 33 | 145 | 4.8 | 20.9 | 0.00 | 0.00 | 0.00 | 30 | 1017.1 |
| 20260830163022 | 33 | 157 | 8.0 | 17.7 | 0.00 | 0.00 | 0.00 | 31 | 1017.2 |
| 20260830162017 | 33 | 154 | 3.2 | 6.4 | 0.00 | 0.00 | 0.00 | 33 | 1017.3 |
| 20260830161027 | 32 | 160 | 6.4 | 14.5 | 0.00 | 0.00 | 0.00 | 35 | 1017.2 |
| 20260830160022 | 32 | 183 | 6.4 | 12.9 | 0.00 | 0.00 | 0.00 | 35 | 1017.3 |
| 20260830155042 | 32 | 169 | 4.8 | 12.9 | 0.00 | 0.00 | 0.00 | 38 | 1017.2 |
| 20260830154138 | 31 | 217 | 1.6 | 9.7 | 0.00 | 0.00 | 0.00 | 39 | 1017.3 |
| 20260830153048 | 31 | 204 | 3.2 | 12.9 | 0.00 | 0.00 | 0.00 | 40 | 1017.3 |
| 20260830152023 | 30 | 158 | 4.8 | 12.9 | 0.00 | 0.00 | 0.00 | 41 | 1017.3 |
| 20260830151038 | 30 | 174 | 3.2 | 11.3 | 0.00 | 0.00 | 0.00 | 42 | 1017.2 |
| 20260830150048 | 29 | 165 | 4.8 | 12.9 | 0.00 | 0.00 | 0.00 | 44 | 1017.3 |
| 20260830145023 | 28 | 140 | 1.6 | 4.8 | 0.00 | 0.00 | 0.00 | 47 | 1017.2 |
| 20260830144018 | 28 | 173 | 4.8 | 12.9 | 0.00 | 0.00 | 0.00 | 49 | 1017.3 |
| 20260830143027 | 27 | 163 | 3.2 | 6.4 | 0.00 | 0.00 | 0.00 | 51 | 1017.2 |
| 20260830142023 | 27 | 168 | 1.6 | 6.4 | 0.00 | 0.00 | 0.00 | 54 | 1017.3 |
| 20260830141018 | 26 | 160 | 3.2 | 6.4 | 0.00 | 0.00 | 0.00 | 56 | 1017.2 |
| 20260830140027 | 25 | 168 | 3.2 | 12.9 | 0.00 | 0.00 | 0.00 | 59 | 1017.3 |
| 20260830135022 | 25 | 160 | 3.2 | 9.7 | 0.00 | 0.00 | 0.00 | 61 | 1017.2 |
| 20260830134018 | 23 | 145 | 3.2 | 11.3 | 0.00 | 0.00 | 0.00 | 63 | 1017.2 |
| 20260830133027 | 23 | 162 | 3.2 | 11.3 | 0.00 | 0.00 | 0.00 | 65 | 1017.2 |
| 20260830132022 | 22 | 160 | 3.2 | 9.7 | 0.00 | 0.00 | 0.00 | 65 | 1017.0 |
| 20260830131017 | 22 | 142 | 3.2 | 6.4 | 0.00 | 0.00 | 0.00 | 65 | 1016.9 |
| 20260830130027 | 22 | 155 | 1.6 | 4.8 | 0.00 | 0.00 | 0.00 | 65 | 1016.8 |
| 20260830125022 | 22 | 157 | 1.6 | 4.8 | 0.00 | 0.00 | 0.00 | 64 | 1016.6 |
| 20260830124017 | 22 | 157 | 0.0 | 3.2 | 0.00 | 0.00 | 0.00 | 64 | 1016.6 |
| 20260830123027 | 22 | 166 | 0.0 | 1.6 | 0.00 | 0.00 | 0.00 | 64 | 1016.4 |
| 20260830122022 | 22 | 166 | 0.0 | 3.2 | 0.00 | 0.00 | 0.00 | 64 | 1016.1 |
| 20260830121017 | 21 | 174 | 1.6 | 4.8 | 0.00 | 0.00 | 0.00 | 64 | 1016.0 |
| 20260830120027 | 21 | 162 | 1.6 | 6.4 | 0.00 | 0.00 | 0.00 | 66 | 1016.0 |
| 20260830115023 | 22 | 190 | 1.6 | 6.4 | 0.00 | 0.00 | 0.00 | 65 | 1015.8 |
| 20260830114017 | 22 | 164 | 1.6 | 6.4 | 0.00 | 0.00 | 0.00 | 65 | 1015.7 |
| 20260830113048 | 22 | 188 | 3.2 | 9.7 | 0.00 | 0.00 | 0.00 | 64 | 1015.6 |
| 20260830112023 | 22 | 159 | 3.2 | 9.7 | 0.00 | 0.00 | 0.00 | 64 | 1015.5 |
| 20260830111018 | 22 | 163 | 3.2 | 6.4 | 0.00 | 0.00 | 0.00 | 64 | 1015.4 |
| 20260830110028 | 22 | 164 | 3.2 | 9.7 | 0.00 | 0.00 | 0.00 | 63 | 1015.4 |
| 20260830105023 | 22 | 178 | 3.2 | 11.3 | 0.00 | 0.00 | 0.00 | 62 | 1015.2 |
| 20260830104058 | 22 | 166 | 3.2 | 6.4 | 0.00 | 0.00 | 0.00 | 62 | 1015.1 |
| 20260830103028 | 22 | 165 | 4.8 | 12.9 | 0.00 | 0.00 | 0.00 | 61 | 1015.1 |
| 20260830102023 | 22 | 182 | 4.8 | 14.5 | 0.00 | 0.00 | 0.00 | 60 | 1015.2 |
| 20260830101019 | 22 | 162 | 3.2 | 9.7 | 0.00 | 0.00 | 0.00 | 60 | 1015.1 |
| 20260830100029 | 22 | 173 | 4.8 | 14.5 | 0.00 | 0.00 | 0.00 | 59 | 1015.2 |
| 20260830095024 | 23 | 171 | 3.2 | 9.7 | 0.00 | 0.00 | 0.00 | 58 | 1015.1 |
| 20260830094019 | 23 | 159 | 4.8 | 12.9 | 0.00 | 0.00 | 0.00 | 58 | 1015.1 |
| 20260830093050 | 23 | 157 | 3.2 | 6.4 | 0.00 | 0.00 | 0.00 | 57 | 1015.1 |
| 20260830092044 | 23 | 170 | 3.2 | 9.7 | 0.00 | 0.00 | 0.00 | 56 | 1015.1 |
| 20260830091019 | 23 | 169 | 1.6 | 9.7 | 0.00 | 0.00 | 0.00 | 56 | 1015.1 |
| 20260830085518 | 23 | 181 | 1.6 | 9.7 | 0.00 | 0.00 | 0.00 | 55 | 1015.0 |
| 20260830084528 | 23 | 160 | 3.2 | 11.3 | 0.00 | 0.00 | 0.00 | 54 | 1015.0 |
| 20260830083543 | 23 | 170 | 3.2 | 6.4 | 0.00 | 0.00 | 0.00 | 54 | 1015.0 |
| 20260830082518 | 23 | 167 | 4.8 | 11.3 | 0.00 | 0.00 | 0.00 | 53 | 1015.0 |
| 20260830081548 | 23 | 178 | 4.8 | 11.3 | 0.00 | 0.00 | 0.00 | 52 | 1015.0 |
| 20260830080524 | 24 | 173 | 4.8 | 12.9 | 0.00 | 0.00 | 0.00 | 51 | 1015.0 |
| 20260830075519 | 24 | 163 | 4.8 | 11.3 | 0.00 | 0.00 | 0.00 | 50 | 1015.1 |
| 20260830074549 | 24 | 174 | 3.2 | 12.9 | 0.00 | 0.00 | 0.00 | 50 | 1015.1 |
| 20260830073544 | 24 | 169 | 3.2 | 11.3 | 0.00 | 0.00 | 0.00 | 49 | 1015.1 |
| 20260830072540 | 25 | 179 | 3.2 | 11.3 | 0.00 | 0.00 | 0.00 | 49 | 1015.1 |
| 20260830071530 | 25 | 174 | 3.2 | 9.7 | 0.00 | 0.00 | 0.00 | 48 | 1015.1 |
| 20260830070525 | 25 | 175 | 1.6 | 4.8 | 0.00 | 0.00 | 0.00 | 47 | 1015.0 |
| 20260830065519 | 25 | 175 | 1.6 | 9.7 | 0.00 | 0.00 | 0.00 | 47 | 1015.1 |
| 20260830064518 | 25 | 156 | 1.6 | 6.4 | 0.00 | 0.00 | 0.00 | 47 | 1015.2 |
| 20260830063550 | 25 | 167 | 1.6 | 4.8 | 0.00 | 0.00 | 0.00 | 46 | 1015.1 |
| 20260830062525 | 25 | 167 | 1.6 | 4.8 | 0.00 | 0.00 | 0.00 | 45 | 1015.2 |
| 20260830061526 | 26 | 163 | 1.6 | 6.4 | 0.00 | 0.00 | 0.00 | 45 | 1015.3 |
| 20260830060529 | 26 | 153 | 0.0 | 1.6 | 0.00 | 0.00 | 0.00 | 43 | 1015.2 |
| 20260830055524 | 26 | 155 | 1.6 | 3.2 | 0.00 | 0.00 | 0.00 | 43 | 1015.3 |
| 20260830054524 | 26 | 162 | 1.6 | 6.4 | 0.00 | 0.00 | 0.00 | 42 | 1015.2 |
| 20260830053538 | 26 | 162 | 3.2 | 4.8 | 0.00 | 0.00 | 0.00 | 42 | 1015.1 |
| 20260830052529 | 26 | 158 | 1.6 | 4.8 | 0.00 | 0.00 | 0.00 | 41 | 1015.2 |
| 20260830051525 | 27 | 146 | 1.6 | 4.8 | 0.00 | 0.00 | 0.00 | 40 | 1015.2 |
| 20260830050518 | 27 | 154 | 1.6 | 4.8 | 0.00 | 0.00 | 0.00 | 39 | 1015.2 |
| 20260830045552 | 27 | 143 | 1.6 | 4.8 | 0.00 | 0.00 | 0.00 | 39 | 1015.1 |
| 20260830044526 | 27 | 133 | 1.6 | 4.8 | 0.00 | 0.00 | 0.00 | 39 | 1015.2 |
| 20260830043524 | 27 | 150 | 1.6 | 4.8 | 0.00 | 0.00 | 0.00 | 38 | 1015.2 |
| 20260830042521 | 27 | 159 | 3.2 | 9.7 | 0.00 | 0.00 | 0.00 | 38 | 1015.1 |
| 20260830041545 | 28 | 151 | 0.0 | 1.6 | 0.00 | 0.00 | 0.00 | 37 | 1015.1 |
| 20260830040523 | 28 | 151 | 0.0 | 1.6 | 0.00 | 0.00 | 0.00 | 36 | 1015.0 |
| 20260830035522 | 28 | 151 | 1.6 | 3.2 | 0.00 | 0.00 | 0.00 | 36 | 1015.0 |
| 20260830034521 | 28 | 151 | 1.6 | 4.8 | 0.00 | 0.00 | 0.00 | 36 | 1014.9 |